Terminal Aerodrome Forecast
Issued by NWS Denver/Boulder, CO

Home | Current Version | Previous Version | Text Only | Print | Product List | Glossary On
Versions: 1 2 3 4 5 6 7 8 9 10 11 12 13 14 15 16 17 18 19 20 21 22 23 24 25 26 27 28 29 30 31 32 33 34 35 36 37 38 39 40 41 42 43 44 45 46 47 48 49 50
000
FTUS45 KBOU 172330
TAFDEN
TAF
KDEN 172330Z 1800/1906 27012G25KT P6SM SCT120 SCT220
     FM180300 23010KT P6SM FEW120
     FM181500 13007KT P6SM SCT100
     FM182300 18012KT P6SM SCT100
     FM190300 24010KT P6SM SCT100=

USA.gov is the U.S. government's official web portal to all federal, state and local government web resources and services.